Location: Wells
(51.2093°N, 2.6446°W)
Time: 11:09:43
(UTC+01:00)

LilacSat-2 - Pass Details

Date: 18 March 2026
Orbit: 412 x 424 km, 97.5° (Epoch: 20 April)

Event Time Altitude Azimuth Distance (km) Brightness Sun altitude
Rises 19:52:22 0° 192° (SSW) 2,391 ? -15.0°
Reaches altitude 10° 19:54:35 10° 206° (SSW) 1,530 ? -15.3°
Maximum altitude 19:57:23 26° 264° (W) 903 ? -15.7°
Drops below altitude 10° 20:00:11 10° 323° (NW) 1,542 ? -16.2°
Sets 20:02:27 0° 337° (NNW) 2,413 ? -16.5°
